This demonstration page uses our WeatherBlox Daily Observations layout. Learn more.

Left ArrowRight Arrow

Hourly Observations for December 30, 2021

Temp ( °F °C ) Dew Point ( °F °C ) Humidity (%) Winds ( mph kmh ) Pressure ( in mb ) Visibility ( mi km ) Precip ( " mm )
12:56 am 00:56 Mostly Clear 12 -11.1 5 -15 73 73 SW 6 9 29.91 1013 10 16 0.00 0.00
1:56 am 01:56 Clear 12 -11.1 7 -13.9 80 80 SSW 6 9 29.90 1013 10 16 0.00 0.00
2:56 am 02:56 Clear 12 -11.1 7 -13.9 80 80 SSW 6 9 29.87 1012 10 16 0.00 0.00
3:56 am 03:56 Clear 14 -10 8 -13.3 77 77 WSW 7 11 29.85 1011 10 16 0.00 0.00
4:56 am 04:56 Clear 15 -9.4 10 -12.2 80 80 SSW 12 19 29.83 1010 10 16 0.00 0.00
5:56 am 05:56 Clear 15 -9.4 9 -12.8 77 77 SSW 10 17 29.82 1010 10 16 0.00 0.00
6:56 am 06:56 Clear 13 -10.6 8 -13.3 81 81 SSW 10 17 29.81 1010 10 16 0.00 0.00
7:56 am 07:56 Clear 16 -8.9 9 -12.8 74 74 SW 12 19 29.79 1009 10 16 0.00 0.00
8:56 am 08:56 Sunny 18 -7.8 10 -12.2 71 71 SSW 14 22 29.79 1009 10 16 0.00 0.00
9:56 am 09:56 Sunny 22 -5.6 12 -11.1 66 66 WSW 13 20 29.80 1009 10 16 0.00 0.00
10:56 am 10:56 Sunny 29 -1.7 16 -8.9 58 58 SSW 20 31 29.76 1008 10 16 0.00 0.00
11:56 am 11:56 Sunny 35 1.7 16 -8.9 46 46 SSW 18 30 29.72 1007 10 16 0.00 0.00
12:56 pm 12:56 Sunny 39 3.9 16 -8.9 39 39 SW 16 26 29.68 1005 10 16 0.00 0.00
1:56 pm 13:56 Sunny 42 5.6 16 -8.9 35 35 SW 10 17 29.65 1004 10 16 0.00 0.00
2:56 pm 14:56 Sunny 44 6.7 16 -8.9 32 32 SSW 12 19 29.64 1004 10 16 0.00 0.00
3:56 pm 15:56 Sunny 42 5.6 15 -9.4 33 33 S 15 24 29.65 1004 10 16 0.00 0.00
4:56 pm 16:56 Sunny 37 2.8 15 -9.4 41 41 S 7 11 29.67 1005 10 16 0.00 0.00
5:56 pm 17:56 Clear 28 -2.2 14 -10 56 56 SSE 8 13 29.67 1005 10 16 0.00 0.00
6:56 pm 18:56 Clear 26 -3.3 16 -8.9 66 66 S 12 19 29.68 1005 10 16 0.00 0.00
7:56 pm 19:56 Clear 25 -3.9 15 -9.4 66 66 S 7 11 29.67 1005 10 16 0.00 0.00
8:56 pm 20:56 Clear 24 -4.4 14 -10 65 65 SSE 3 6 29.68 1005 10 16 0.00 0.00
9:56 pm 21:56 Clear 19 -7.2 13 -10.6 77 77 NE 10 17 29.64 1004 9 14 0.00 0.00
10:56 pm 22:56 Clear 22 -5.6 15 -9.4 75 75 E 5 7 29.61 1003 10 16 0.00 0.00
11:56 pm 23:56 Clear 23 -5 17 -8.3 78 78 NE 6 9 29.59 1002 10 16 0.00 0.00

Powered by AerisWeather